SAUDICOMSAT 4

Satellite information

Favourite Embed

Satellite Type and Status

PAYLOADIN ORBIT

Key statistics

Satellite SAUDICOMSAT 4 at a glance.

Uptime

6760

Days in orbit

Revolutions

≈ 14.6

Per day

Orbit

SSO

Sun Synchronous Orbit

Inclination

98.4

Latest

Satellite identification and parameters

Extended collection of information and parameters for SAUDICOMSAT 4.

Object identification

Identified? True

Debris? False

Object name: SAUDICOMSAT 4

International designator: 2007-012L

Object number (NORAD): 31127

Object ID (CCSDS): 31127

Country: SAUDI ARABIA (SAUD)

Current information (Y/N): Y

RCS size: SMALL

Orbital parameters

Period: 98.357 minutes

Inclination: 98.3654 deg

SMA: 7058.263 km

Apoapsis: 724.395 km

Periapsis: 635.861 km

RAAN: 255.0753 deg

Eccentricy: 0.00627166

Argument of periapsis: 292.9909 deg

Mean anomaly: 66.4685 deg

Mean motion: 14.64050401 rev/day

Mean motion (dot): 0.00001561 rev/day2

B* drag term: 0.00029918209 1/REarth

Two-line elements (TLE)

Creation date: Oct. 19, 2025, 2:20 a.m.

Reference frame: TEME

Reference center: EARTH

Epoch: Oct. 18, 2025, 8:59 p.m. UTC

TLE line 0: 0 SAUDICOMSAT 4

TLE line 1: 1 31127U 07012L 25291.87483232 .00001561 00000-0 29918-3 0 9995

TLE line 2: 2 31127 98.3654 255.0753 0062717 292.9909 66.4685 14.64050401986060

Live tracking on map

Real-time ground track for satellite SAUDICOMSAT 4.

In-orbit conjunctions

There are no conjunctions computed for SAUDICOMSAT 4, at the moment. Check back to stay up to date, as we update our databases every day.

Go to all conjunctions

Associated space launch

Rideshare mission with Egyptian and Saudi Arabian Earth observation satellites as well as 14 American cubesats

SAUDICOMSAT 4 was lifted into orbit during the mission ‘Dnepr | EgyptSat 1 & Saudisat 3’, on board a Dnepr space rocket.

The launch took place on April 17, 2007, 6:46 a.m. from 109/95.

For more information about the launch, click the button.

Launch to space Dnepr | EgyptSat 1 & Saudisat 3
Dnepr | EgyptSat 1 & Saudisat 3

Agency: N/A

Status: Launch Successful

Launch date: April 17, 2007, 6:46 a.m. UTC

Rocket: Dnepr

Launch pad: 109/95

Location: Baikonur Cosmodrome, Republic of Kazakhstan

...

Latest news about this satellite

There are no fresh news available about this satellite. Check back as we update our databases every day.


Newsletter sign-up

Weekly statistics, charts and insights to help you stay on top of the space industry.